TimeMST,TemperatureF,Dew PointF,Humidity,Sea Level PressureIn,VisibilityMPH,Wind Direction,Wind SpeedMPH,Gust SpeedMPH,PrecipitationIn,Events,Conditions,WindDirDegrees,DateUTC
12:15 AM,32.0,23.7,71,30.09,10.0,West,11.5,-,N/A,,Overcast,270,2014-01-11 07:15:00
12:35 AM,31.8,23.9,73,30.10,10.0,West,9.2,-,N/A,,Overcast,280,2014-01-11 07:35:00
12:55 AM,32.5,24.4,72,30.10,10.0,West,13.8,-,N/A,,Overcast,260,2014-01-11 07:55:00
1:15 AM,32.2,23.2,69,30.10,10.0,SW,11.5,-,N/A,,Overcast,230,2014-01-11 08:15:00
1:35 AM,32.2,23.7,71,30.11,10.0,SW,11.5,-,N/A,,Overcast,230,2014-01-11 08:35:00
1:55 AM,32.4,24.3,72,30.12,10.0,WSW,10.4,-,N/A,,Overcast,250,2014-01-11 08:55:00
2:15 AM,32.0,23.9,72,30.12,10.0,SW,9.2,-,N/A,,Overcast,220,2014-01-11 09:15:00
2:35 AM,32.0,23.5,71,30.12,10.0,SW,3.5,-,N/A,,Overcast,230,2014-01-11 09:35:00
2:55 AM,31.1,22.1,69,30.13,10.0,SSW,10.4,-,N/A,,Overcast,210,2014-01-11 09:55:00
3:15 AM,32.0,22.6,68,30.12,10.0,SSW,15.0,24.2,N/A,,Overcast,200,2014-01-11 10:15:00
3:35 AM,32.0,22.6,68,30.13,10.0,SSW,13.8,24.2,N/A,,Overcast,210,2014-01-11 10:35:00
3:55 AM,32.0,22.6,68,30.14,10.0,SSW,16.1,24.2,N/A,,Overcast,200,2014-01-11 10:55:00
4:15 AM,32.2,22.6,68,30.13,10.0,SSW,17.3,21.9,N/A,,Overcast,210,2014-01-11 11:15:00
4:35 AM,32.5,22.8,67,30.13,10.0,SSW,16.1,21.9,N/A,,Overcast,200,2014-01-11 11:35:00
4:55 AM,32.9,22.6,66,30.14,10.0,SSW,11.5,21.9,N/A,,Overcast,200,2014-01-11 11:55:00
5:15 AM,32.4,23.2,69,30.15,10.0,SSW,9.2,-,N/A,,Overcast,210,2014-01-11 12:15:00
5:35 AM,32.7,23.2,68,30.15,10.0,SSW,18.4,27.6,N/A,,Overcast,210,2014-01-11 12:35:00
5:55 AM,32.9,23.2,67,30.15,10.0,SSW,17.3,24.2,N/A,,Overcast,200,2014-01-11 12:55:00
6:15 AM,33.1,23.5,68,30.16,10.0,SSW,15.0,-,N/A,,Overcast,200,2014-01-11 13:15:00
6:35 AM,33.1,23.5,68,30.16,10.0,South,6.9,11.5,N/A,,Overcast,190,2014-01-11 13:35:00
6:55 AM,33.3,24.1,69,30.15,10.0,SSW,16.1,20.7,N/A,,Overcast,210,2014-01-11 13:55:00
7:15 AM,33.8,23.9,67,30.16,10.0,SSW,17.3,25.3,N/A,,Overcast,200,2014-01-11 14:15:00
7:35 AM,33.8,23.9,67,30.16,10.0,SSW,13.8,23.0,N/A,,Overcast,200,2014-01-11 14:35:00
7:55 AM,34.0,24.1,67,30.16,10.0,SSW,11.5,21.9,N/A,,Overcast,200,2014-01-11 14:55:00
8:15 AM,34.2,23.9,66,30.16,10.0,SSW,18.4,21.9,N/A,,Overcast,200,2014-01-11 15:15:00
8:35 AM,34.7,24.6,67,30.17,10.0,SSW,17.3,24.2,N/A,,Overcast,210,2014-01-11 15:35:00
8:55 AM,35.6,24.6,64,30.17,10.0,SSW,12.7,25.3,N/A,,Overcast,200,2014-01-11 15:55:00
9:15 AM,36.0,24.6,63,30.18,10.0,SSW,12.7,19.6,N/A,,Overcast,200,2014-01-11 16:15:00
9:35 AM,36.1,25.2,64,30.18,10.0,WSW,4.6,-,N/A,,Overcast,240,2014-01-11 16:35:00
9:55 AM,37.4,24.8,60,30.18,10.0,SSW,13.8,24.2,N/A,,Overcast,210,2014-01-11 16:55:00
10:15 AM,39.2,24.8,56,30.16,10.0,South,19.6,29.9,N/A,,Overcast,190,2014-01-11 17:15:00
10:35 AM,39.2,24.6,56,30.16,10.0,SSW,20.7,27.6,N/A,,Overcast,210,2014-01-11 17:35:00
10:55 AM,38.3,24.8,58,30.16,10.0,SSW,21.9,29.9,N/A,,Overcast,210,2014-01-11 17:55:00
11:15 AM,38.7,25.2,58,30.15,10.0,South,16.1,24.2,N/A,,Overcast,190,2014-01-11 18:15:00
11:35 AM,40.1,25.5,56,30.13,10.0,SSW,16.1,26.5,N/A,,Mostly Cloudy,200,2014-01-11 18:35:00
11:55 AM,40.1,25.2,55,30.11,10.0,SSW,19.6,26.5,N/A,,Scattered Clouds,200,2014-01-11 18:55:00
12:15 PM,40.1,25.2,55,30.09,10.0,South,17.3,24.2,N/A,,Scattered Clouds,190,2014-01-11 19:15:00
12:35 PM,39.2,25.3,58,30.06,10.0,SSW,18.4,27.6,N/A,,Clear,200,2014-01-11 19:35:00
12:55 PM,39.4,25.3,57,30.05,10.0,SSW,20.7,27.6,N/A,,Clear,200,2014-01-11 19:55:00
1:15 PM,39.4,25.5,58,30.03,10.0,South,19.6,24.2,N/A,,Clear,190,2014-01-11 20:15:00
1:35 PM,39.6,25.5,57,30.02,10.0,SSW,13.8,19.6,N/A,,Clear,200,2014-01-11 20:35:00
1:55 PM,39.7,25.9,58,30.01,10.0,SSW,19.6,23.0,N/A,,Clear,200,2014-01-11 20:55:00
2:15 PM,40.6,26.1,56,30.00,10.0,SSW,15.0,20.7,N/A,,Clear,210,2014-01-11 21:15:00
2:35 PM,40.1,25.7,56,29.99,10.0,SSW,11.5,23.0,N/A,,Clear,210,2014-01-11 21:35:00
2:55 PM,40.6,25.7,55,29.98,10.0,SSW,13.8,20.7,N/A,,Clear,210,2014-01-11 21:55:00
3:15 PM,41.0,25.5,54,29.96,10.0,SSW,16.1,25.3,N/A,,Clear,210,2014-01-11 22:15:00
3:35 PM,41.4,25.5,53,29.96,10.0,SSW,12.7,24.2,N/A,,Clear,210,2014-01-11 22:35:00
3:55 PM,41.0,25.7,55,29.95,10.0,SW,10.4,-,N/A,,Clear,220,2014-01-11 22:55:00
4:15 PM,39.7,25.2,56,29.95,10.0,WSW,8.1,18.4,N/A,,Clear,240,2014-01-11 23:15:00
4:35 PM,38.7,25.3,59,29.93,10.0,SSW,10.4,16.1,N/A,,Clear,200,2014-01-11 23:35:00
4:55 PM,38.5,24.8,58,29.93,10.0,WSW,9.2,16.1,N/A,,Clear,240,2014-01-11 23:55:00
5:15 PM,38.3,24.6,58,29.92,10.0,SW,8.1,-,N/A,,Clear,230,2014-01-12 00:15:00
5:35 PM,39.6,24.4,55,29.90,10.0,South,15.0,24.2,N/A,,Clear,190,2014-01-12 00:35:00
5:55 PM,39.4,24.8,56,29.88,10.0,SSW,16.1,25.3,N/A,,Clear,200,2014-01-12 00:55:00
6:15 PM,39.7,24.8,55,29.87,10.0,SSW,24.2,33.4,N/A,,Clear,200,2014-01-12 01:15:00
6:35 PM,39.4,25.3,57,29.86,10.0,SSW,23.0,35.7,N/A,,Clear,200,2014-01-12 01:35:00
6:55 PM,39.6,25.2,56,29.86,10.0,SSW,25.3,35.7,N/A,,Clear,200,2014-01-12 01:55:00
7:15 PM,39.2,25.3,58,29.86,10.0,SSW,21.9,35.7,N/A,,Clear,210,2014-01-12 02:15:00
7:35 PM,39.6,25.2,56,29.86,10.0,SSW,23.0,31.1,N/A,,Clear,200,2014-01-12 02:35:00
7:55 PM,39.6,25.2,56,29.87,10.0,SSW,18.4,33.4,N/A,,Clear,210,2014-01-12 02:55:00
8:15 PM,39.6,25.2,56,29.86,10.0,SSW,18.4,27.6,N/A,,Mostly Cloudy,210,2014-01-12 03:15:00
8:35 PM,39.4,25.2,57,29.86,10.0,SW,12.7,28.8,N/A,,Overcast,220,2014-01-12 03:35:00
8:55 PM,39.4,25.0,56,29.85,10.0,SSW,20.7,35.7,N/A,,Overcast,210,2014-01-12 03:55:00
9:15 PM,39.2,24.8,56,29.82,10.0,SSW,27.6,32.2,N/A,,Mostly Cloudy,200,2014-01-12 04:15:00
9:35 PM,39.2,24.8,56,29.83,10.0,South,23.0,32.2,N/A,,Scattered Clouds,190,2014-01-12 04:35:00
9:55 PM,39.0,24.4,56,29.81,10.0,South,18.4,28.8,N/A,,Scattered Clouds,190,2014-01-12 04:55:00
10:15 PM,38.7,24.4,57,29.80,10.0,South,19.6,27.6,N/A,,Clear,190,2014-01-12 05:15:00
10:35 PM,38.7,24.4,57,29.80,10.0,SSW,15.0,25.3,N/A,,Scattered Clouds,200,2014-01-12 05:35:00
10:55 PM,38.7,24.6,57,29.80,10.0,SSW,19.6,24.2,N/A,,Overcast,210,2014-01-12 05:55:00
11:15 PM,37.9,25.0,60,29.79,10.0,SSW,17.3,23.0,N/A,,Overcast,210,2014-01-12 06:15:00
11:35 PM,37.4,25.3,62,29.78,10.0,SSW,12.7,-,N/A,,Overcast,210,2014-01-12 06:35:00
11:55 PM,35.8,25.5,66,29.77,10.0,SW,9.2,-,N/A,,Scattered Clouds,220,2014-01-12 06:55:00